| time (UTC) | temp F | wind direction | speed MPH | gust MPH | rain 1hr in | rain 24hr in | rain mn in | humidity % | barometer mb |
| 20260505003011 | 63 | 261 | 5.0 | 12.0 | 0.00 | 0.00 | 0.00 | 52 | 1010.1 |
| 20260505001510 | 64 | 246 | 6.0 | 14.0 | 0.00 | 0.00 | 0.00 | 49 | 1010.0 |
| 20260505000026 | 65 | 266 | 6.0 | 11.0 | 0.00 | 0.00 | 0.00 | 47 | 1009.9 |
| 20260504234519 | 66 | 236 | 5.0 | 16.0 | 0.00 | 0.00 | 0.00 | 45 | 1010.0 |
| 20260504233020 | 66 | 256 | 6.0 | 10.0 | 0.00 | 0.00 | 0.00 | 45 | 1009.9 |
| 20260504231519 | 66 | 271 | 4.0 | 8.0 | 0.00 | 0.00 | 0.00 | 46 | 1010.1 |
| 20260504230019 | 67 | 248 | 4.0 | 10.0 | 0.00 | 0.00 | 0.00 | 45 | 1010.0 |
| 20260504224517 | 68 | 158 | 6.0 | 14.0 | 0.00 | 0.00 | 0.00 | 44 | 1010.0 |
| 20260504223015 | 69 | 179 | 3.0 | 7.0 | 0.00 | 0.00 | 0.00 | 44 | 1010.0 |
| 20260504221514 | 69 | 275 | 9.0 | 16.0 | 0.00 | 0.00 | 0.00 | 41 | 1010.0 |
| 20260504220006 | 70 | 233 | 3.0 | 11.0 | 0.00 | 0.00 | 0.00 | 42 | 1010.0 |
| 20260504214506 | 70 | 216 | 5.0 | 13.0 | 0.00 | 0.00 | 0.00 | 40 | 1010.0 |
| 20260504213010 | 70 | 257 | 6.0 | 11.0 | 0.00 | 0.00 | 0.00 | 42 | 1010.0 |
| 20260504211508 | 70 | 164 | 6.0 | 15.0 | 0.00 | 0.00 | 0.00 | 38 | 1010.0 |
| 20260504210020 | 70 | 251 | 7.0 | 14.0 | 0.00 | 0.00 | 0.00 | 40 | 1009.9 |
| 20260504204518 | 70 | 217 | 5.0 | 13.0 | 0.00 | 0.00 | 0.00 | 39 | 1010.0 |
| 20260504203016 | 71 | 280 | 9.0 | 13.0 | 0.00 | 0.00 | 0.00 | 39 | 1010.0 |
| 20260504201512 | 72 | 251 | 5.0 | 13.0 | 0.00 | 0.00 | 0.00 | 37 | 1010.1 |
| 20260504200010 | 71 | 245 | 7.0 | 15.0 | 0.00 | 0.00 | 0.00 | 36 | 1010.4 |
| 20260504194508 | 71 | 258 | 8.0 | 11.0 | 0.00 | 0.00 | 0.00 | 36 | 1010.6 |
| 20260504193003 | 72 | 245 | 5.0 | 14.0 | 0.00 | 0.00 | 0.00 | 39 | 1010.8 |
| 20260504191526 | 71 | 259 | 9.0 | 17.0 | 0.00 | 0.00 | 0.00 | 36 | 1010.9 |
| 20260504190020 | 71 | 257 | 8.0 | 16.0 | 0.00 | 0.00 | 0.00 | 37 | 1011.1 |
| 20260504184523 | 71 | 266 | 7.0 | 16.0 | 0.00 | 0.00 | 0.00 | 39 | 1011.3 |
| 20260504183015 | 70 | 225 | 6.0 | 13.0 | 0.00 | 0.00 | 0.00 | 36 | 1011.3 |
| 20260504181514 | 70 | 248 | 3.0 | 13.0 | 0.00 | 0.00 | 0.00 | 38 | 1011.3 |
| 20260504180014 | 69 | 250 | 7.0 | 11.0 | 0.00 | 0.00 | 0.00 | 38 | 1011.7 |
| 20260504174508 | 70 | 252 | 10.0 | 15.0 | 0.00 | 0.00 | 0.00 | 39 | 1011.9 |
| 20260504173004 | 69 | 274 | 5.0 | 13.0 | 0.00 | 0.00 | 0.00 | 38 | 1012.0 |
| 20260504171524 | 69 | 245 | 6.0 | 15.0 | 0.00 | 0.00 | 0.00 | 39 | 1012.3 |
| 20260504081515 | 41 | 5 | 0.0 | 1.0 | 0.00 | 0.00 | 0.00 | 71 | 1014.9 |
| 20260504044509 | 43 | 348 | 0.0 | 1.0 | 0.00 | 0.00 | 0.00 | 65 | 1015.3 |
| 20260504043003 | 42 | 348 | 0.0 | 1.0 | 0.00 | 0.00 | 0.00 | 69 | 1015.3 |
| 20260504041529 | 42 | 348 | 0.0 | 0.0 | 0.00 | 0.00 | 0.00 | 67 | 1015.0 |
| 20260504040012 | 42 | 348 | 0.0 | 0.0 | 0.00 | 0.00 | 0.00 | 67 | 1014.7 |
| 20260504034512 | 43 | 348 | 0.0 | 1.0 | 0.00 | 0.00 | 0.00 | 67 | 1014.8 |
| 20260504033008 | 43 | 348 | 0.0 | 1.0 | 0.00 | 0.00 | 0.00 | 67 | 1014.7 |
| 20260504031508 | 43 | 348 | 0.0 | 1.0 | 0.00 | 0.00 | 0.00 | 66 | 1014.7 |
| 20260504030005 | 43 | 348 | 0.0 | 1.0 | 0.00 | 0.00 | 0.00 | 67 | 1014.6 |
| 20260504024524 | 44 | 348 | 0.0 | 1.0 | 0.00 | 0.00 | 0.00 | 65 | 1014.5 |
| 20260504023019 | 44 | 348 | 0.0 | 1.0 | 0.00 | 0.00 | 0.00 | 64 | 1014.6 |
| 20260504021515 | 44 | 348 | 0.0 | 0.0 | 0.00 | 0.00 | 0.00 | 64 | 1014.7 |
| 20260504020016 | 45 | 348 | 0.0 | 1.0 | 0.00 | 0.00 | 0.00 | 64 | 1014.6 |
| 20260504014522 | 45 | 348 | 0.0 | 1.0 | 0.00 | 0.00 | 0.00 | 62 | 1014.6 |
| 20260504013009 | 46 | 348 | 0.0 | 1.0 | 0.00 | 0.00 | 0.00 | 61 | 1014.4 |
| 20260504011506 | 47 | 348 | 0.0 | 1.0 | 0.00 | 0.00 | 0.00 | 61 | 1014.2 |
| 20260504010023 | 47 | 348 | 0.0 | 1.0 | 0.00 | 0.00 | 0.00 | 60 | 1014.1 |
| 20260504004522 | 48 | 348 | 1.0 | 2.0 | 0.00 | 0.00 | 0.00 | 57 | 1014.1 |